TimeMDT,TemperatureF,Dew PointF,Humidity,Sea Level PressureIn,VisibilityMPH,Wind Direction,Wind SpeedMPH,Gust SpeedMPH,PrecipitationIn,Events,Conditions,WindDirDegrees,DateUTC
12:53 AM,37.0,19.9,50,30.25,10.0,WSW,3.5,-,N/A,,Clear,250,2012-10-06 06:53:00
1:53 AM,35.1,19.0,52,30.27,10.0,West,4.6,-,N/A,,Clear,260,2012-10-06 07:53:00
2:53 AM,34.0,18.0,52,30.27,10.0,Calm,Calm,-,N/A,,Clear,0,2012-10-06 08:53:00
3:53 AM,34.0,19.0,54,30.27,10.0,WSW,6.9,-,N/A,,Clear,240,2012-10-06 09:53:00
4:53 AM,35.1,19.0,52,30.26,10.0,WSW,6.9,-,N/A,,Clear,250,2012-10-06 10:53:00
5:53 AM,33.1,17.1,52,30.29,10.0,SW,6.9,-,N/A,,Clear,230,2012-10-06 11:53:00
6:53 AM,28.9,18.0,64,30.32,10.0,West,3.5,-,N/A,,Clear,270,2012-10-06 12:53:00
8:53 AM,33.1,19.9,59,30.37,10.0,East,5.8,-,N/A,,Clear,80,2012-10-06 14:53:00
9:53 AM,41.0,23.0,49,30.38,10.0,NE,5.8,-,N/A,,Clear,40,2012-10-06 15:53:00
10:53 AM,48.0,24.1,39,30.38,10.0,NNE,5.8,-,N/A,,Clear,20,2012-10-06 16:53:00
11:53 AM,53.1,23.0,31,30.36,10.0,East,6.9,-,N/A,,Clear,100,2012-10-06 17:53:00
12:53 PM,55.9,21.0,26,30.33,10.0,Calm,Calm,-,N/A,,Clear,0,2012-10-06 18:53:00
1:53 PM,59.0,18.0,20,30.31,10.0,Variable,4.6,-,N/A,,Clear,0,2012-10-06 19:53:00
2:53 PM,61.0,17.1,18,30.27,10.0,SSE,4.6,-,N/A,,Clear,160,2012-10-06 20:53:00
3:53 PM,61.0,18.0,19,30.25,10.0,West,3.5,-,N/A,,Clear,270,2012-10-06 21:53:00
5:53 PM,63.0,19.9,19,30.21,10.0,North,3.5,-,N/A,,Clear,10,2012-10-06 23:53:00
6:53 PM,59.0,21.0,23,30.21,10.0,Calm,Calm,-,N/A,,Clear,0,2012-10-07 00:53:00
7:53 PM,51.1,23.0,33,30.21,10.0,Calm,Calm,-,N/A,,Clear,0,2012-10-07 01:53:00
8:53 PM,44.1,25.0,47,30.22,10.0,West,3.5,-,N/A,,Clear,260,2012-10-07 02:53:00
9:53 PM,44.1,24.1,45,30.22,10.0,Calm,Calm,-,N/A,,Clear,0,2012-10-07 03:53:00
10:53 PM,41.0,21.0,45,30.22,10.0,Calm,Calm,-,N/A,,Clear,0,2012-10-07 04:53:00
11:53 PM,35.1,21.0,57,30.22,10.0,Calm,Calm,-,N/A,,Clear,0,2012-10-07 05:53:00